Punta Cana, Dominican Republic

9:52 PM AST on February 09, 2016 (GMT -0400)
Punta Cana International

Weather History for MDPC - March, 2013

Change the Weather History Date:

Monday, March 4, 2013

  Actual Average Record
Temperature  
Mean Temperature 78 °F -  
Max Temperature 83 °F 82 °F 87 °F (2007)
Min Temperature 73 °F 73 °F 68 °F (2012)
Cooling Degree Days 13    
Growing Degree Days 28 (Base 50)    
Moisture  
Dew Point 69 °F    
Average Humidity 77    
Maximum Humidity 94    
Minimum Humidity 52    
Precipitation  
Precipitation 0.00 in - - ()
Sea Level Pressure  
Sea Level Pressure 30.02 in    
Wind  
Wind Speed 8 mph ()    
Max Wind Speed 20 mph    
Max Gust Speed -    
Visibility 6.7 miles    
Events Rain    
Averages and records for this station are not official NWS values.
T = Trace of Precipitation, MM = Missing Value Source: Averaged Metar Reports

Daily Weather History Graph

Daily Weather History Graph

Search for Another Location

Airport or City:

Trip Planner

Search our weather history database for the weather conditions in past years. The results will help you decide how hot, cold, wet, or windy it might be!

Date:

Astronomy

Mar. 04, 2013 Rise Set
Actual Time 6:50 AM AST 6:40 PM AST
Civil Twilight 6:28 AM AST 7:02 PM AST
Nautical Twilight 6:02 AM AST 7:27 PM AST
Astronomical Twilight 5:37 AM AST 7:52 PM AST
Moon 12:23 AM AST (3/4) 11:52 AM AST (3/4)
Length of Visible Light 12h 34m
Length of Day
11h 50m
Waning Gibbous, 53% of the Moon is Illuminated
Mar 4
Waning Gibbous
Mar 4
Last Quarter
Mar 11
New
Mar 19
First Quarter
Mar 27
Full

Hourly Weather History & Observations

Time (AST) Temp. Heat Index Dew Point Humidity Pressure Visibility Wind Dir Wind Speed Gust Speed Precip Events Conditions
12:00 AM 77.0 °F - 71.6 °F 83% 30.01 in 6.2 mi North 4.6 mph - N/A   Mostly Cloudy
1:00 AM 75.2 °F - 71.6 °F 89% 30.01 in 6.2 mi Variable 3.5 mph - N/A   Mostly Cloudy
2:00 AM 74 °F - 71 °F 89% 29.99 in 10 mi North 4.5 mph - -   Partly Cloudy
2:00 AM 75.2 °F - 71.6 °F 89% 29.98 in 6.2 mi North 4.6 mph - N/A   Mostly Cloudy
3:00 AM 73.4 °F - 71.6 °F 94% 29.95 in 6.2 mi North 5.8 mph - N/A   Mostly Cloudy
4:00 AM 73.4 °F - 71.6 °F 94% 29.98 in 6.2 mi North 8.1 mph - N/A   Mostly Cloudy
5:00 AM 73.4 °F - 69.8 °F 88% 29.98 in 6.2 mi North 4.6 mph - N/A   Mostly Cloudy
6:00 AM 73.4 °F - 71.6 °F 94% 29.98 in 6.2 mi North 5.8 mph - N/A   Mostly Cloudy
7:00 AM 73.4 °F - 71.6 °F 94% 30.01 in 6.2 mi North 8.1 mph - N/A   Mostly Cloudy
8:00 AM 73.4 °F - 71.6 °F 94% 30.04 in 6.2 mi North 6.9 mph - N/A   Mostly Cloudy
9:00 AM 78.8 °F - 71.6 °F 78% 30.04 in 6.2 mi NNE 10.4 mph - N/A   Scattered Clouds
10:00 AM 77.0 °F - 71.6 °F 83% 30.06 in 5.0 mi North 17.3 mph - N/A Rain Rain
11:00 AM 77.0 °F - 69.8 °F 78% 30.06 in 6.2 mi NNE 19.6 mph - N/A   Scattered Clouds
12:00 PM 80.6 °F 83.9 °F 69.8 °F 70% 30.06 in 6.2 mi NNE 17.3 mph - N/A   Mostly Cloudy
1:00 PM 82.4 °F 85.4 °F 68.0 °F 62% 30.04 in 6.2 mi NNE 17.3 mph - N/A   Scattered Clouds
2:00 PM 82.4 °F 84.6 °F 66.2 °F 58% 30.01 in 6.2 mi NE 19.6 mph - N/A   Scattered Clouds
3:00 PM 82.4 °F 84.6 °F 66.2 °F 58% 30.01 in 6.2 mi NNE 18.4 mph - N/A   Scattered Clouds
4:00 PM 80.6 °F 82.7 °F 66.2 °F 61% 30.01 in 6.2 mi NNE 13.8 mph - N/A   Scattered Clouds
5:00 PM 81 °F - 66 °F 52% 30.00 in 10 mi NNE 15.7 mph - -   Scattered Clouds
5:00 PM 80.6 °F 82.7 °F 66.2 °F 61% 29.98 in 6.2 mi NNE 16.1 mph - N/A   Scattered Clouds
6:00 PM 78.8 °F - 66.2 °F 65% 30.01 in 6.2 mi NE 16.1 mph - N/A   Scattered Clouds
7:00 PM 77.0 °F - 66.2 °F 69% 30.01 in 6.2 mi NNE 12.7 mph - N/A   Scattered Clouds
8:00 PM 76 °F - 67 °F 67% 30.03 in 10 mi NE 11.2 mph - -   Partly Cloudy
8:00 PM 75.2 °F - 68.0 °F 78% 30.01 in 6.2 mi NE 11.5 mph - N/A   Scattered Clouds
9:00 PM 77.0 °F - 69.8 °F 78% 30.04 in 6.2 mi NE 11.5 mph - N/A   Scattered Clouds
10:00 PM 77.0 °F - 69.8 °F 78% 30.04 in 6.2 mi NE 11.5 mph - N/A   Scattered Clouds
11:00 PM 76 °F - 69 °F 74% 30.06 in 10 mi NE 8.9 mph - -   Partly Cloudy
11:00 PM 77.0 °F - 69.8 °F 78% 30.04 in 6.2 mi NE 9.2 mph - N/A   Scattered Clouds